Wind_Speed
21 19 18 17 17 17 18 18 19 17 18 18 17 17 18 17 17 18 19 19 19 18 18 19 19 19 19 20 20 20 20 19 18 17 17 17 16 17 17 18 19 19 19 20
22 20 19 19 18 18 18 18 19 19 19 20 20 19 18 19 20 21 21 22 21 21 20 20 20 20 20 21 21 21 21 20 19 18 18 18 18 18 19 20 20 20 21 21
22 20 21 21 19 17 17 19 19 20 19 21 22 20 20 22 22 23 23 23 22 22 22 22 22 21 21 21 21 22 22 21 20 20 20 20 21 21 21 21 22 23 22 22
23 22 22 21 19 18 18 19 21 22 21 22 23 23 25 26 26 25 25 25 25 23 24 23 23 23 22 22 22 22 21 21 21 21 22 22 22 23 23 24 24 24 24 24
24 23 22 21 21 21 22 24 25 25 25 24 25 25 25 27 27 27 26 26 24 25 24 24 25 24 24 24 24 24 23 23 23 23 24 24 24 25 25 25 25 25 25 26
25 24 23 24 24 23 24 27 28 28 27 28 29 28 28 29 28 28 28 28 27 28 27 26 26 26 26 26 26 26 25 25 24 25 25 25 25 26 26 26 26 26 27 27
26 25 25 26 26 25 26 30 30 30 30 29 31 31 31 32 31 30 29 29 30 30 30 28 29 29 28 27 27 26 26 26 26 25 26 26 26 27 27 27 28 28 29 29
26 26 26 28 28 28 30 30 32 33 31 32 32 32 32 33 32 31 32 31 31 32 32 31 31 30 30 30 29 28 27 27 27 27 27 28 28 28 28 28 29 30 30 30
28 29 32 32 31 31 32 33 33 34 34 34 34 34 34 34 34 34 34 33 33 33 33 33 32 32 31 31 31 30 29 28 28 28 28 29 30 30 30 30 30 31 31 31
31 32 32 33 34 35 34 34 34 34 35 35 35 35 36 37 35 33 33 35 36 35 35 34 33 33 33 32 32 32 31 30 30 30 30 31 31 31 32 32 32 32 33 33
32 33 34 34 35 35 35 35 36 36 36 36 36 36 36 36 36 34 34 35 35 36 36 35 34 33 33 33 32 32 33 32 32 32 33 32 31 32 32 33 33 33 33 34
33 35 35 34 34 35 35 35 35 36 36 37 36 36 35 35 35 34 35 35 35 35 35 35 34 34 34 34 33 33 34 34 34 34 34 34 33 33 33 34 34 34 35 35
33 34 35 35 34 34 35 36 36 36 36 35 35 34 34 35 34 34 35 35 35 35 34 35 34 34 33 33 33 34 34 35 34 35 35 35 35 35 35 35 35 35 35 35
33 32 33 33 33 34 34 34 34 34 34 34 33 33 34 34 34 33 34 34 33 33 33 34 34 33 33 33 34 34 35 35 35 35 35 35 35 35 36 36 36 35 35 36
33 33 33 32 32 33 32 32 31 32 32 32 33 33 34 34 33 32 32 32 33 33 33 33 33 34 34 33 34 35 35 35 35 35 35 35 36 36 36 36 36 36 36 36
32 32 32 31 31 31 31 32 32 32 32 32 33 33 34 33 33 32 33 33 33 34 34 34 33 34 34 34 35 35 35 35 36 35 35 36 36 36 37 37 37 37 37 37
31 31 30 30 30 30 30 31 31 31 31 31 32 32 33 33 33 33 33 33 34 34 34 34 34 35 34 33 33 33 34 35 35 36 37 37 37 37 38 38 38 38 38 38
30 29 29 29 29 29 29 29 30 31 31 31 31 32 32 33 32 32 33 33 33 34 33 33 34 33 33 34 34 34 34 35 36 37 38 38 38 38 39 39 38 39 39 39
28 28 28 28 28 29 29 29 30 31 31 31 32 32 32 33 34 34 34 33 33 33 33 34 34 33 34 34 35 36 36 36 37 37 37 38 39 38 39 39 39 40 40 41
27 27 28 28 28 29 29 30 30 31 31 32 32 32 32 32 33 33 33 33 34 34 33 33 33 34 34 35 36 37 38 38 38 38 38 38 39 39 40 39 39 40 39 39
25 26 26 27 27 27 27 28 28 29 30 31 31 31 31 31 32 32 33 33 32 32 32 33 33 34 35 35 35 36 36 36 36 37 38 38 38 38 39 39 39 39 39 39
24 25 25 25 24 24 25 26 26 27 28 28 28 29 29 30 30 31 32 31 31 31 31 31 32 33 34 34 34 34 34 34 34 35 36 37 37 37 38 38 37 37 37 38
23 23 23 23 22 22 23 23 23 24 25 25 26 26 26 26 27 28 29 29 30 30 30 30 30 31 31 31 32 33 33 33 34 34 35 36 37 37 37 37 36 37 37 36
21 21 21 21 21 21 21 21 21 22 22 23 23 24 25 25 26 27 27 27 27 28 28 29 30 30 30 31 31 31 32 32 33 34 34 34 34 34 35 36 37 37 37 37
20 20 20 20 20 20 20 20 21 21 22 22 22 23 23 23 24 24 25 25 25 26 27 28 29 29 29 29 30 31 31 31 32 32 33 33 33 33 34 35 36 35 35 35
19 20 20 21 21 21 21 21 22 22 22 22 23 23 24 24 24 24 25 25 25 25 25 27 28 29 29 30 30 30 30 31 31 31 31 32 33 33 33 33 34 34 34 34
19 20 20 19 20 21 21 22 22 22 22 23 22 23 23 24 24 24 23 24 24 24 25 27 28 28 28 29 29 30 30 30 31 31 31 31 32 33 33 33 34 34 35 35
Wind_Direction
232 231 229 233 236 237 241 244 247 246 245 251 255 264 270 271 275 279 280 283 285 287 292 296 298 300 302 301 302 303 302 299 299 298 296 294 296 297 295 295 295 296 297 298
241 238 233 232 231 238 242 244 251 250 253 253 256 263 271 272 274 277 277 279 281 283 288 290 293 296 299 302 300 299 299 298 296 295 293 293 294 295 295 295 296 296 296 296
243 242 239 238 236 237 243 247 250 252 255 255 255 259 267 270 272 276 277 278 279 280 285 285 287 293 296 298 299 298 298 295 293 291 291 291 292 292 292 293 294 295 294 294
245 243 237 242 239 241 245 248 248 251 255 258 262 262 262 266 269 271 272 275 278 280 282 282 287 289 292 295 297 297 296 294 292 289 288 290 292 292 292 291 291 292 294 294
243 247 246 246 241 241 244 247 250 253 255 257 260 264 264 266 268 270 270 275 279 282 281 283 285 287 290 292 292 292 292 292 291 288 287 289 290 292 292 292 291 290 290 293
245 245 249 250 247 243 246 251 252 254 255 257 260 263 265 269 271 271 274 276 278 280 281 282 284 287 288 288 289 289 289 290 290 287 286 287 289 291 292 291 291 290 290 291
247 247 250 253 254 252 247 250 255 258 257 258 260 264 269 272 273 276 274 276 277 277 279 279 281 283 284 285 286 286 287 287 288 288 287 287 288 289 290 291 290 290 290 291
250 247 246 249 252 253 254 258 260 262 264 264 266 267 269 273 275 276 277 277 276 276 277 278 279 280 281 283 284 283 283 284 285 286 286 287 287 287 287 289 290 290 290 290
244 244 247 250 253 256 257 259 262 263 265 268 268 269 270 271 274 276 275 275 275 275 275 275 275 276 277 279 281 281 281 282 283 284 285 285 285 286 287 288 289 290 288 288
246 247 250 253 255 257 257 260 262 265 268 270 271 270 270 272 274 274 273 273 274 274 275 274 274 275 276 277 278 279 280 281 283 284 284 284 285 286 287 288 290 291 291 291
250 251 251 253 255 258 261 263 265 267 269 272 273 274 273 273 274 272 272 273 272 273 273 273 273 273 274 276 277 277 278 280 281 283 284 285 285 286 287 288 290 291 292 291
251 252 255 255 256 258 261 263 266 268 269 272 273 274 274 273 274 272 272 273 274 275 275 275 274 274 275 276 276 276 277 278 280 281 282 284 285 285 286 287 288 290 291 291
254 255 257 259 260 262 263 265 266 268 271 273 274 272 272 274 275 274 272 272 274 276 275 275 276 276 277 278 277 276 276 277 278 279 280 281 281 283 285 286 288 289 290 290
255 258 261 263 263 264 266 267 268 269 270 271 272 271 271 272 273 273 273 274 275 277 276 275 275 276 277 278 278 277 277 278 279 280 281 282 282 283 284 285 287 288 289 289
257 260 262 264 264 265 267 268 269 269 270 271 272 272 272 272 272 272 272 272 274 276 275 275 275 276 276 277 278 278 279 279 278 279 281 281 282 283 284 285 286 287 289 289
257 261 263 263 263 264 266 268 270 270 271 272 272 272 272 272 271 272 273 272 272 273 274 276 277 276 277 278 278 279 278 278 278 279 281 282 282 282 283 284 285 287 288 287
259 260 262 263 264 266 267 268 269 270 271 272 272 273 273 273 273 274 275 275 274 275 276 276 277 277 275 276 277 279 280 280 280 280 281 282 282 282 284 284 285 287 288 287
260 262 263 264 265 267 268 269 269 269 271 272 273 274 274 273 274 275 277 277 277 277 277 277 277 277 276 276 277 278 279 280 282 282 282 282 282 281 283 286 288 288 288 289
259 261 263 265 266 268 269 269 270 271 271 272 274 275 276 276 275 276 277 277 277 277 277 277 278 279 278 277 277 277 279 280 282 283 282 283 284 284 285 286 287 288 289 289
259 261 263 265 268 270 271 271 271 272 273 273 275 277 277 277 278 277 278 279 279 279 278 278 278 280 281 279 278 279 281 281 282 282 282 283 283 283 284 285 287 288 290 292
259 261 263 266 269 271 271 273 273 273 274 276 277 277 278 278 279 279 279 279 279 280 281 281 281 281 282 283 284 283 282 283 283 282 281 282 284 284 285 287 289 290 290 291
261 263 266 268 270 272 274 275 275 275 276 277 278 278 279 279 280 280 281 281 281 281 282 283 284 284 284 285 285 286 287 287 286 285 284 284 285 286 287 287 287 288 289 290
261 262 265 268 271 274 277 278 278 278 278 278 278 279 280 282 283 284 284 282 283 285 285 286 287 287 286 286 286 287 287 287 287 288 288 289 289 288 288 288 288 289 290 291
261 263 266 268 271 274 276 277 279 280 280 281 281 281 282 283 286 287 287 288 288 289 288 287 288 288 288 287 288 289 288 287 288 288 288 290 291 292 292 291 292 293 292 292
263 264 266 268 270 271 273 276 280 281 281 281 282 284 285 286 289 290 290 290 291 292 291 290 290 290 289 289 290 290 290 290 289 288 289 288 289 292 295 295 294 295 296 295
265 266 268 269 271 272 273 275 278 281 284 285 285 285 285 287 289 289 289 290 292 294 295 295 295 293 291 292 293 292 290 289 288 289 290 291 293 294 295 296 296 296 297 297
266 268 269 270 271 273 274 276 278 281 283 286 289 289 290 290 290 289 290 291 292 296 299 299 298 296 294 294 295 295 294 293 292 293 293 293 294 295 295 296 297 297 297 296
Height
5889 5891 5893 5896 5899 5901 5902 5903 5903 5903 5903 5903 5902 5902 5902 5902 5902 5901 5901 5900 5899 5898 5897 5897 5895 5894 5893 5891 5890 5888 5887 5886 5885 5884 5883 5882 5882 5881 5880 5879 5878 5876 5875 5874
5884 5886 5888 5891 5894 5896 5897 5899 5899 5899 5898 5897 5897 5899 5897 5898 5898 5897 5897 5896 5895 5894 5893 5892 5891 5890 5888 5887 5886 5884 5883 5882 5881 5880 5879 5878 5877 5876 5875 5874 5873 5871 5870 5868
5879 5882 5884 5886 5889 5890 5892 5894 5894 5893 5893 5892 5892 5893 5893 5893 5892 5892 5891 5890 5890 5890 5889 5888 5886 5885 5884 5883 5881 5879 5878 5877 5876 5875 5875 5874 5872 5871 5870 5869 5868 5866 5864 5863
5875 5877 5879 5883 5884 5885 5886 5887 5887 5887 5887 5887 5886 5887 5887 5887 5886 5885 5885 5884 5884 5884 5883 5881 5880 5880 5879 5878 5877 5875 5874 5872 5871 5870 5869 5868 5867 5866 5864 5863 5862 5860 5859 5857
5870 5871 5873 5876 5877 5879 5880 5880 5880 5881 5882 5882 5881 5880 5880 5879 5879 5878 5877 5877 5876 5877 5876 5875 5875 5874 5873 5872 5871 5870 5869 5867 5866 5865 5864 5862 5861 5860 5858 5857 5855 5854 5852 5851
5863 5865 5868 5870 5870 5871 5874 5873 5872 5873 5874 5874 5874 5873 5873 5872 5872 5871 5871 5871 5871 5870 5869 5868 5868 5868 5867 5866 5865 5864 5862 5861 5860 5859 5857 5856 5855 5853 5851 5850 5849 5847 5845 5844
5856 5858 5861 5861 5862 5865 5867 5866 5866 5865 5866 5866 5866 5867 5867 5865 5863 5862 5862 5863 5863 5863 5862 5862 5861 5861 5860 5859 5858 5857 5856 5855 5853 5852 5850 5849 5848 5846 5845 5843 5842 5840 5839 5837
5850 5852 5855 5853 5854 5856 5857 5857 5858 5858 5858 5858 5859 5859 5859 5858 5856 5855 5855 5854 5854 5854 5854 5854 5853 5853 5852 5852 5851 5850 5849 5848 5846 5845 5844 5842 5841 5839 5838 5836 5834 5833 5831 5830
5842 5844 5844 5844 5846 5847 5849 5850 5850 5851 5851 5851 5851 5851 5851 5850 5849 5848 5847 5847 5846 5845 5845 5845 5844 5844 5844 5843 5843 5842 5841 5840 5839 5838 5836 5835 5833 5831 5830 5828 5827 5825 5823 5821
5834 5835 5836 5837 5838 5839 5840 5841 5842 5842 5843 5843 5842 5842 5841 5841 5840 5839 5838 5838 5837 5837 5836 5835 5835 5835 5835 5834 5834 5833 5832 5832 5831 5829 5828 5827 5825 5823 5822 5820 5819 5817 5815 5813
5826 5827 5828 5828 5829 5830 5831 5833 5833 5834 5834 5833 5833 5832 5832 5831 5831 5831 5829 5829 5828 5827 5827 5826 5825 5825 5825 5825 5824 5824 5823 5822 5822 5821 5819 5817 5816 5814 5813 5811 5810 5808 5806 5804
5817 5818 5819 5820 5821 5822 5823 5824 5824 5824 5824 5824 5823 5823 5822 5822 5821 5820 5820 5819 5818 5818 5817 5816 5816 5816 5815 5815 5815 5814 5813 5813 5812 5811 5810 5808 5807 5805 5803 5802 5800 5798 5796 5794
5808 5809 5810 5811 5812 5813 5814 5815 5815 5815 5815 5814 5814 5813 5813 5812 5812 5811 5811 5810 5810 5809 5808 5808 5807 5807 5806 5806 5805 5804 5804 5803 5802 5801 5799 5798 5796 5795 5794 5792 5790 5788 5787 5784
5800 5801 5802 5803 5804 5804 5805 5805 5806 5806 5805 5805 5805 5804 5804 5803 5803 5803 5802 5802 5801 5800 5800 5799 5799 5798 5797 5796 5795 5795 5794 5793 5792 5791 5789 5788 5786 5785 5784 5782 5780 5778 5776 5774
5792 5793 5794 5795 5795 5795 5796 5796 5796 5796 5796 5796 5796 5795 5795 5794 5794 5793 5793 5793 5792 5792 5791 5790 5789 5788 5787 5787 5786 5785 5784 5783 5782 5781 5779 5778 5776 5775 5773 5771 5769 5767 5765 5763
5784 5785 5785 5786 5786 5787 5788 5788 5787 5787 5787 5787 5787 5786 5785 5785 5785 5784 5784 5783 5783 5783 5782 5780 5779 5779 5778 5777 5776 5775 5774 5772 5771 5770 5769 5768 5766 5764 5763 5761 5758 5757 5754 5752
5776 5776 5777 5778 5778 5778 5779 5779 5779 5778 5778 5778 5777 5777 5776 5776 5776 5775 5775 5774 5773 5773 5772 5771 5770 5769 5768 5767 5766 5765 5764 5762 5761 5760 5759 5757 5756 5754 5751 5749 5747 5745 5743 5740
5767 5767 5769 5770 5770 5770 5770 5770 5770 5769 5769 5769 5768 5768 5767 5766 5766 5766 5765 5764 5763 5763 5762 5761 5760 5759 5758 5757 5756 5755 5753 5752 5751 5749 5747 5746 5744 5742 5740 5738 5735 5734 5731 5729
5760 5760 5761 5762 5762 5762 5762 5761 5761 5760 5760 5760 5759 5759 5758 5757 5757 5756 5755 5754 5753 5752 5752 5751 5750 5749 5748 5747 5746 5745 5743 5742 5739 5737 5736 5734 5733 5731 5729 5727 5725 5723 5720 5718
5753 5753 5753 5754 5754 5754 5753 5753 5752 5752 5751 5751 5750 5750 5749 5749 5748 5746 5745 5744 5743 5742 5742 5741 5740 5739 5738 5737 5735 5734 5733 5731 5729 5727 5725 5724 5722 5720 5717 5715 5713 5711 5709 5706
5745 5746 5746 5746 5746 5745 5745 5744 5744 5743 5743 5742 5742 5741 5741 5740 5739 5737 5736 5735 5734 5732 5732 5731 5730 5729 5727 5726 5724 5723 5722 5720 5718 5716 5715 5713 5710 5708 5706 5704 5702 5700 5698 5695
5739 5739 5739 5739 5738 5738 5737 5736 5736 5735 5734 5734 5734 5733 5732 5732 5731 5729 5728 5727 5725 5723 5722 5721 5720 5719 5717 5716 5714 5713 5711 5710 5708 5705 5703 5701 5699 5698 5695 5692 5690 5689 5686 5684
5732 5732 5732 5732 5732 5731 5731 5730 5729 5728 5727 5726 5726 5725 5724 5723 5722 5721 5720 5718 5716 5715 5713 5712 5711 5709 5708 5706 5705 5703 5701 5699 5697 5695 5693 5691 5689 5686 5684 5682 5681 5678 5674 5671
5726 5726 5726 5726 5725 5725 5725 5724 5723 5722 5721 5720 5719 5718 5717 5716 5715 5713 5712 5710 5709 5707 5705 5704 5702 5700 5698 5697 5695 5693 5691 5689 5687 5685 5683 5681 5679 5676 5674 5672 5670 5667 5664 5661
5720 5720 5720 5720 5719 5719 5718 5718 5717 5716 5714 5713 5712 5711 5710 5709 5708 5706 5704 5703 5701 5699 5697 5695 5693 5691 5689 5688 5686 5684 5682 5680 5678 5675 5673 5671 5669 5667 5664 5662 5658 5656 5653 5651
5714 5714 5714 5714 5713 5713 5712 5712 5711 5709 5708 5707 5706 5705 5703 5702 5701 5699 5697 5695 5693 5691 5689 5687 5685 5683 5681 5679 5677 5675 5673 5671 5669 5666 5664 5662 5660 5657 5655 5652 5649 5646 5644 5641
5708 5708 5708 5708 5707 5707 5706 5705 5704 5703 5702 5701 5700 5698 5697 5695 5694 5692 5690 5688 5687 5685 5682 5680 5678 5675 5672 5670 5668 5665 5663 5661 5659 5657 5655 5653 5650 5648 5645 5643 5640 5637 5634 5630